Voltar ao catálogo

STARLINK-34987

AtivoComunicaçõesSSO
NORAD 65255·PAYLOAD·🇺🇸 United States

Lançado Aug 18, 2025 de Vandenberg Space Force Base

Loading…

Próximas Passagens (próximas 24 horas)

TLE

AtualizadoSource: CelesTrak SupGP

Época: Sep 15, 2026, 02:33 UTC

1 65255C 25179W   26258.10673611  .00023596  00000+0  73236-3 0  2581
2 65255  97.2833 297.4985 0000929  86.7570 351.2695 15.33432271    17

Acompanhe STARLINK-34987 em tempo real com AllMySat

Download on the App Store